[[{"header":{"parameterUnit":"m.s-1","parameterCategory":1,"la1":30.2992,"la2":30.254,"lo1":-89.0895,"lo2":-89.0443,"dy":0.0025,"dx":0.0025,"nx":19,"ny":19,"refTime":"2026-04-23T03:00:00:Z","depth":0,"parameterNumber":2,"parameterNumberName":"U-component_of_WINDS"},"data":[0,0,0,-3.3263,-3.3265,-3.3353,-3.3353,-3.3466,-3.3467,0,0,0,0,0,0,0,0,0,0,0,-3.3239,-3.324,-3.3263,-3.3265,-3.3353,-3.3353,-3.3466,-3.3467,0,0,0,0,0,0,0,0,0,0,0,-3.3239,-3.324,-3.3241,-3.3266,-3.3353,-3.3353,-3.3466,-3.3399,0,0,0,0,0,0,0,0,0,0,-3.3314,-3.3293,-3.3239,-3.3241,-3.3266,-3.3352,-3.3353,-3.3396,-3.3403,-3.3427,0,-3.345,0,-3.3461,-3.3475,-3.3475,0,0,0,-3.3264,-3.3287,-3.3309,-3.3241,-3.3267,-3.3352,-3.3313,-3.34,-3.3408,-3.3437,-3.3452,-3.3456,-3.3462,-3.3476,-3.3476,-3.3623,-3.3623,0,0,-3.3259,-3.3255,-3.3304,-3.3315,-3.3302,-3.331,-3.3316,-3.3405,-3.342,-3.3452,-3.3458,-3.3464,-3.3476,-3.3477,-3.3622,-3.3623,0,0,0,-3.3246,-3.3252,-3.3272,-3.331,-3.3326,-3.3313,-3.3319,-3.3416,-3.3423,-3.346,-3.3466,-3.3477,-3.3479,-3.3621,-3.3622,-3.3655,0,0,0,-3.3243,-3.3244,-3.327,-3.3268,-3.3324,-3.3372,-3.3328,-3.3417,-3.3427,-3.3465,-3.3477,-3.348,-3.362,-3.3622,-3.3652,-3.367,0,0,0,-3.3233,-3.3243,-3.3256,-3.3268,-3.3306,-3.3371,-3.3383,-3.3419,-3.3431,-3.3475,-3.348,-3.362,-3.3621,-3.365,-3.3666,-3.3707,0,0,0,-3.322,-3.3284,-3.3257,-3.3331,-3.3305,-3.3391,-3.3382,-3.3447,-3.3489,-3.3478,-3.362,-3.3622,-3.3649,-3.3664,-3.3704,-3.3739,-3.3754,0,0,-3.3299,-3.3293,-3.3337,-3.3316,-3.3406,-3.3378,-3.3473,-3.3515,-3.3523,-3.3589,-3.3592,-3.3653,-3.3666,-3.3706,-3.384,-3.3851,0,0,0,-3.3361,-3.3392,-3.3417,-3.3458,-3.3492,-3.3523,-3.3551,-3.3567,-3.3623,-3.3556,-3.368,-3.3688,-3.3711,-3.3728,-3.3738,-3.3758,-3.363,-3.363,-3.363,-3.3465,-3.3472,-3.3545,-3.3563,-3.3603,-3.3632,-3.3664,-3.369,-3.3686,-3.3715,-3.3734,-3.3814,-3.3833,-3.3841,-3.3862,-3.3754,-3.3754,-3.3754,-3.3755,-3.358,-3.3625,-3.3618,-3.3686,-3.3693,-3.3751,-3.3782,-3.3776,-3.383,-3.38,-3.3821,-3.3786,-3.3853,-3.3872,-3.3757,-3.3757,-3.3756,-3.3756,-3.3756,-3.3647,-3.367,-3.3689,-3.3749,-3.3794,-3.381,-3.3863,-3.3868,-3.3872,-3.3894,-3.3913,-3.3913,-3.3912,-3.3903,-3.3904,-3.3904,-3.3904,-3.3904,-3.3904,-3.3709,-3.373,-3.3773,-3.3816,-3.3843,-3.3879,-3.391,-3.3936,-3.3967,-3.3966,-3.3966,-3.3958,-3.3859,-3.3833,-3.3909,-3.3908,-3.3907,-3.3907,-3.3907,-3.3819,-3.3796,-3.3863,-3.389,-3.3941,-3.3985,-3.3992,-3.4045,-3.4068,-3.4093,-3.4082,-3.4008,-3.4003,-3.3995,-3.3973,-3.4081,-3.4081,-3.4081,-3.4081,-3.3875,-3.3874,-3.3944,-3.3986,-3.4029,-3.4042,-3.4117,-3.4142,-3.4164,-3.4179,-3.4165,-3.4137,-3.4129,-3.4128,-3.4118,-3.4097,-3.4234,-3.4234,-3.4234,-3.3943,-3.3946,-3.4009,-3.4031,-3.4071,-3.4106,-3.4176,-3.4225,-3.4245,-3.424,-3.419,-3.4183,-3.4139,-3.4125,-3.4116,-3.4099,-3.4062,0,0]},{"header":{"parameterUnit":"m.s-1","parameterCategory":1,"la1":30.2992,"la2":30.254,"lo1":-89.0895,"lo2":-89.0443,"dy":0.0025,"dx":0.0025,"nx":19,"ny":19,"refTime":"2026-04-23T03:00:00:Z","depth":0,"parameterNumber":3,"parameterNumberName":"V-component_of_WINDS"},"data":[0,0,0,4.4746,4.4748,4.4834,4.4834,4.4948,4.4949,0,0,0,0,0,0,0,0,0,0,0,4.4725,4.4726,4.4746,4.4748,4.4834,4.4834,4.4948,4.4949,0,0,0,0,0,0,0,0,0,0,0,4.4724,4.4725,4.4727,4.4748,4.4834,4.4834,4.4948,4.4881,0,0,0,0,0,0,0,0,0,0,4.4796,4.4782,4.4725,4.4727,4.4749,4.4834,4.4834,4.4878,4.4885,4.4912,0,4.4938,0,4.4946,4.4957,4.4958,0,0,0,4.4744,4.4776,4.4795,4.4727,4.475,4.4834,4.4794,4.4882,4.489,4.4922,4.494,4.4944,4.4948,4.4958,4.4959,4.513,4.5131,0,0,4.4739,4.4742,4.4789,4.4801,4.479,4.4791,4.4797,4.4887,4.4906,4.494,4.4946,4.495,4.4959,4.496,4.5129,4.513,0,0,0,4.4728,4.4739,4.4756,4.4796,4.4812,4.4794,4.48,4.4902,4.4907,4.4948,4.4951,4.496,4.4961,4.5128,4.5129,4.5181,0,0,0,4.4725,4.4732,4.4754,4.4757,4.481,4.4858,4.4814,4.4901,4.4911,4.495,4.496,4.4962,4.5127,4.5129,4.5177,4.5204,0,0,0,4.4717,4.4731,4.4746,4.4757,4.4794,4.4857,4.4868,4.4903,4.4914,4.4958,4.4963,4.5126,4.5128,4.5174,4.5199,4.5249,0,0,0,4.4709,4.479,4.4747,4.4837,4.4794,4.489,4.4867,4.4938,4.4982,4.496,4.5127,4.5129,4.5173,4.5195,4.5246,4.5292,4.5312,0,0,4.4812,4.4802,4.4855,4.4819,4.4924,4.4876,4.4987,4.5024,4.5025,4.5094,4.5098,4.5179,4.5198,4.5249,4.5425,4.5441,0,0,0,4.4889,4.4927,4.4954,4.4997,4.5029,4.5058,4.5078,4.5091,4.5151,4.5062,4.5211,4.5223,4.5252,4.5274,4.5288,4.5312,4.514,4.514,4.514,4.5036,4.5035,4.5122,4.5131,4.5174,4.5194,4.5227,4.5249,4.5233,4.5269,4.5289,4.5396,4.5422,4.5432,4.5458,4.5314,4.5315,4.5315,4.5315,4.5185,4.5238,4.5218,4.5295,4.5293,4.5357,4.538,4.5367,4.5425,4.5381,4.5407,4.5358,4.545,4.5472,4.5319,4.5318,4.5318,4.5317,4.5317,4.528,4.5305,4.5322,4.5385,4.5434,4.5439,4.5497,4.5492,4.5487,4.5513,4.5533,4.5532,4.5529,4.5523,4.5524,4.5524,4.5525,4.5525,4.5525,4.5372,4.5389,4.5439,4.5481,4.5508,4.5543,4.5565,4.5591,4.5618,4.561,4.561,4.559,4.546,4.5426,4.5531,4.553,4.5529,4.5528,4.5528,4.5521,4.5486,4.5564,4.5591,4.5639,4.5687,4.5681,4.5734,4.5755,4.5783,4.5759,4.5664,4.5652,4.5641,4.5613,4.576,4.576,4.576,4.576,4.56,4.5595,4.5672,4.5717,4.576,4.5762,4.5847,4.5865,4.5878,4.589,4.5868,4.5832,4.5821,4.5816,4.5801,4.5775,4.5959,4.5959,4.5959,4.5691,4.569,4.5764,4.5778,4.5815,4.5846,4.5926,4.5976,4.5983,4.5967,4.5899,4.5891,4.5831,4.5812,4.5793,4.5771,4.5722,0,0]}]]